Date String (YYYY-MM-DD hh:mm:ss) UTC,Instrument flags,Ambient pressure (hPa),Sample flow (lpm),Bypass flow (lpm),Sample temperature (°C),Ambient temperature (°C),ASC tube jacket temperature (°C),LED temperature (°C),Box temperature (°C),Sample RH (%),Span deviation,Mass concentration (μg/m³),Mass concentration (μg/m³),Mass concentration (μg/m³)
DateTimeUTC,F1_M11,P_M11,Q1_M11,Q2_M11,T1_M11,T2_M11,T3_M11,T4_M11,T5_M11,U1_M11,ZSPAN_M11,X0_M11,X2_M11,X1_M11
2021-10-08 09:00:00,,0826.7,4.98,0.00,30.2,29.3,00.0,39.2,32.0,13.9,0000.0,0006.20,0002.74,0002.42
2021-10-08 09:01:00,,0826.6,5.00,0.00,30.2,29.3,00.0,39.3,32.0,13.9,0000.0,0006.15,0002.76,0002.42
2021-10-08 09:02:00,,0826.5,5.00,0.00,30.2,29.3,00.0,39.3,32.0,13.9,0000.0,0006.41,0002.80,0002.43
2021-10-08 09:03:00,,0826.5,5.01,0.00,30.2,29.3,00.0,39.3,32.0,13.9,0000.0,0006.50,0002.81,0002.43
2021-10-08 09:04:00,,0826.5,5.02,0.00,30.3,29.4,00.0,39.3,32.0,13.8,0000.0,0006.93,0002.79,0002.42
2021-10-08 09:05:00,,0826.5,4.99,0.00,30.3,29.4,00.0,39.3,32.1,13.8,0000.0,0007.45,0002.80,0002.44
2021-10-08 09:06:00,,0826.5,4.99,0.00,30.3,29.4,00.0,39.3,32.1,13.8,0000.0,0007.46,0002.80,0002.44
2021-10-08 09:07:00,,0826.5,5.01,0.00,30.3,29.4,00.0,39.3,32.1,13.7,0000.0,0007.05,0002.80,0002.44
2021-10-08 09:08:00,,0826.6,5.00,0.00,30.3,29.4,00.0,39.4,32.1,13.8,0000.0,0006.62,0002.78,0002.42
2021-10-08 09:09:00,,0826.6,4.99,0.00,30.3,29.4,00.0,39.4,32.1,13.8,0000.0,0006.19,0002.76,0002.40
2021-10-08 09:10:00,,0826.6,5.01,0.00,30.3,29.4,00.0,39.4,32.1,13.8,0000.0,0006.48,0002.75,0002.38
2021-10-08 09:11:00,,0826.5,4.99,0.00,30.3,29.5,00.0,39.4,32.1,13.7,0000.0,0006.48,0002.75,0002.37
2021-10-08 09:12:00,,0826.5,4.99,0.00,30.4,29.5,00.0,39.4,32.1,13.7,0000.0,0006.53,0002.77,0002.38
2021-10-08 09:13:00,,0826.5,5.00,0.00,30.4,29.5,00.0,39.4,32.1,13.7,0000.0,0006.31,0002.74,0002.37
2021-10-08 09:14:00,,0826.5,5.01,0.00,30.4,29.5,00.0,39.4,32.1,13.7,0000.0,0006.24,0002.73,0002.36
2021-10-08 09:15:00,,0826.5,4.99,0.00,30.4,29.5,00.0,39.4,32.2,13.7,0000.0,0005.90,0002.73,0002.36
2021-10-08 09:16:00,,0826.5,5.00,0.00,30.4,29.5,00.0,39.5,32.2,13.7,0000.0,0005.32,0002.77,0002.35
2021-10-08 09:17:00,,0826.5,5.00,0.00,30.4,29.5,00.0,39.5,32.2,13.6,0000.0,0005.30,0002.79,0002.36
2021-10-08 09:18:00,,0826.6,5.00,0.00,30.4,29.5,00.0,39.5,32.2,13.7,0000.0,0005.17,0002.76,0002.35
2021-10-08 09:19:00,,0826.6,4.99,0.00,30.4,29.5,00.0,39.5,32.2,13.7,0000.0,0005.07,0002.75,0002.36
2021-10-08 09:20:00,,0826.6,5.01,0.00,30.4,29.5,00.0,39.5,32.2,13.7,0000.0,0005.55,0002.74,0002.36
2021-10-08 09:21:00,,0826.6,5.00,0.00,30.4,29.5,00.0,39.5,32.2,13.7,0000.0,0004.42,0002.73,0002.36
2021-10-08 09:22:00,,0826.6,4.99,0.00,30.4,29.5,00.0,39.5,32.2,13.7,0000.0,0004.11,0002.71,0002.35
2021-10-08 09:23:00,,0826.5,5.00,0.00,30.4,29.4,00.0,39.5,32.2,13.8,0000.0,0004.15,0002.74,0002.36
2021-10-08 09:24:00,,0826.6,4.99,0.00,30.4,29.4,00.0,39.5,32.2,13.9,0000.0,0004.17,0002.76,0002.37
2021-10-08 09:25:00,,0826.6,4.99,0.00,30.4,29.4,00.0,39.5,32.1,13.9,0000.0,0004.22,0002.78,0002.37
2021-10-08 09:26:00,,0826.7,5.01,0.00,30.4,29.4,00.0,39.5,32.1,13.8,0000.0,0004.33,0002.77,0002.37
2021-10-08 09:27:00,,0826.7,4.99,0.00,30.4,29.5,00.0,39.5,32.1,13.9,0000.0,0004.38,0002.75,0002.35
2021-10-08 09:28:00,,0826.7,5.00,0.00,30.4,29.5,00.0,39.5,32.1,13.9,0000.0,0004.27,0002.68,0002.33
2021-10-08 09:29:00,,0826.7,5.00,0.00,30.4,29.5,00.0,39.5,32.1,13.9,0000.0,0004.20,0002.64,0002.30
2021-10-08 09:30:00,,0826.7,5.00,0.00,30.4,29.5,00.0,39.5,32.1,13.9,0000.0,0004.09,0002.62,0002.28
2021-10-08 09:31:00,,0826.7,5.01,0.00,30.4,29.6,00.0,39.5,32.1,13.9,0000.0,0003.69,0002.62,0002.27
2021-10-08 09:32:00,,0826.7,5.00,0.00,30.4,29.6,00.0,39.5,32.1,13.8,0000.0,0004.63,0002.62,0002.26
2021-10-08 09:33:00,,0826.7,4.99,0.00,30.4,29.6,00.0,39.5,32.2,13.9,0000.0,0004.76,0002.60,0002.24
2021-10-08 09:34:00,,0826.8,5.03,0.00,30.4,29.6,00.0,39.5,32.2,13.9,0000.0,0004.65,0002.54,0002.22
2021-10-08 09:35:00,,0826.9,5.00,0.00,30.4,29.6,00.0,39.5,32.2,14.0,0000.0,0005.15,0002.49,0002.18
2021-10-08 09:36:00,,0826.9,5.00,0.00,30.4,28.7,00.0,39.5,31.9,13.9,0000.0,0005.99,0002.48,0002.17
2021-10-08 09:37:00,,0826.7,4.98,0.00,30.2,26.1,00.0,39.4,31.3,13.9,0000.0,0005.85,0002.46,0002.16
2021-10-08 09:38:00,,0826.7,5.02,0.00,30.0,25.2,00.0,39.4,31.0,14.0,0000.0,0005.66,0002.44,0002.16
2021-10-08 09:39:00,,0826.7,5.00,0.00,29.9,25.5,00.0,39.3,31.0,14.1,0000.0,0005.99,0002.46,0002.17
2021-10-08 09:40:00,,0826.7,5.00,0.00,29.8,26.1,00.0,39.2,31.1,14.4,0000.0,0006.51,0002.48,0002.18
2021-10-08 09:41:00,,0826.7,5.00,0.00,29.7,26.6,00.0,39.2,31.2,14.6,0000.0,0006.49,0002.46,0002.18
2021-10-08 09:42:00,,0826.8,4.99,0.00,29.7,27.1,00.0,39.1,31.2,14.8,0000.0,0006.42,0002.44,0002.17
2021-10-08 09:43:00,,0826.9,5.00,0.00,29.7,27.4,00.0,39.1,31.3,14.8,0000.0,0005.47,0002.42,0002.17
2021-10-08 09:44:00,,0826.9,4.99,0.00,29.7,27.7,00.0,39.0,31.3,14.7,0000.0,0005.21,0002.46,0002.18
2021-10-08 09:45:00,,0826.9,5.00,0.00,29.7,28.0,00.0,39.0,31.4,14.7,0000.0,0005.23,0002.48,0002.20
2021-10-08 09:46:00,,0827.1,4.99,0.00,29.7,28.2,00.0,39.0,31.4,14.8,0000.0,0004.93,0002.51,0002.22
2021-10-08 09:47:00,,0827.0,5.00,0.00,29.7,28.3,00.0,39.0,31.4,14.8,0000.0,0003.98,0002.55,0002.25
2021-10-08 09:48:00,,0826.9,5.01,0.00,29.7,28.4,00.0,39.0,31.5,14.7,0000.0,0004.13,0002.59,0002.26
2021-10-08 09:49:00,,0827.0,5.00,0.00,29.8,28.5,00.0,39.0,31.5,14.8,0000.0,0004.20,0002.62,0002.28
2021-10-08 09:50:00,,0826.9,5.01,0.00,29.8,28.6,00.0,38.9,31.5,14.8,0000.0,0004.17,0002.66,0002.29
2021-10-08 09:51:00,,0827.0,5.00,0.00,29.8,28.7,00.0,38.9,31.6,14.7,0000.0,0003.59,0002.68,0002.31
2021-10-08 09:52:00,,0826.9,5.00,0.00,29.8,28.7,00.0,39.0,31.6,14.7,0000.0,0004.14,0002.73,0002.34
2021-10-08 09:53:00,,0826.8,5.00,0.00,29.8,28.8,00.0,39.0,31.6,14.8,0000.0,0004.51,0002.86,0002.39
2021-10-08 09:54:00,,0826.9,5.00,0.00,29.8,28.8,00.0,39.0,31.7,14.8,0000.0,0005.43,0003.05,0002.45
2021-10-08 09:55:00,,0827.0,5.01,0.00,29.9,28.8,00.0,39.0,31.7,15.0,0000.0,0006.14,0003.17,0002.51
2021-10-08 09:56:00,,0827.0,4.99,0.00,29.9,28.9,00.0,39.0,31.7,15.1,0000.0,0006.74,0003.28,0002.56
2021-10-08 09:57:00,,0827.0,5.01,0.00,29.9,28.9,00.0,39.0,31.7,15.1,0000.0,0007.42,0003.38,0002.61
2021-10-08 09:58:00,,0827.0,4.99,0.00,29.9,29.0,00.0,39.0,31.7,15.2,0000.0,0008.12,0003.46,0002.67
2021-10-08 09:59:00,,0827.0,5.00,0.00,29.9,29.0,00.0,39.0,31.7,15.3,0000.0,0008.79,0003.54,0002.73
